Temperature
26 25 24 23 22 22 21 21 20 20 20 20 20 20 19 19 19 19 19 19 19 19 19 19 19 19 19 19 19 19 19 19 19 19 19 19 19 19 19 19 18 18 18
26 25 24 24 23 22 21 21 21 20 20 20 20 20 20 20 19 19 19 19 19 19 19 19 19 19 19 19 19 19 19 19 19 19 19 19 19 19 19 19 19 18 18
27 25 25 24 23 22 21 21 21 21 20 20 20 20 20 20 20 19 19 19 19 19 19 19 19 19 19 19 19 19 19 19 19 19 19 19 19 19 19 19 19 19 18
27 26 25 24 24 23 22 21 21 21 21 20 20 20 20 20 20 20 19 19 19 19 19 19 19 19 19 19 19 19 19 19 19 19 19 19 19 19 19 19 19 19 18
28 27 26 25 24 23 22 22 21 21 21 20 20 20 20 20 20 20 20 19 19 19 19 19 19 19 19 19 19 19 19 19 19 19 19 19 19 19 19 19 19 19 18
29 27 26 25 25 24 23 22 21 21 21 21 20 20 20 20 20 20 20 20 19 19 19 19 19 19 19 19 19 19 19 19 19 19 19 19 19 19 19 19 19 19 18
29 28 27 26 25 24 23 22 22 21 21 21 20 20 20 20 20 20 20 20 20 19 20 19 19 19 19 19 19 19 19 19 19 19 19 19 19 19 19 19 19 18 18
30 29 27 26 25 24 24 23 22 22 21 21 21 20 20 20 20 20 20 20 20 20 20 20 20 19 19 19 19 19 19 19 19 19 19 19 19 19 19 19 19 18 18
30 29 28 26 26 25 24 23 23 22 21 21 21 21 21 20 20 20 20 20 20 20 20 20 20 19 19 19 19 19 19 19 19 19 19 19 19 19 19 19 18 18 18
30 29 28 27 26 25 24 24 23 22 21 21 21 21 21 21 20 20 20 20 20 20 20 20 20 19 19 19 19 19 19 19 19 19 19 19 19 18 19 18 18 18 18
29 28 28 27 26 25 25 24 23 22 21 21 21 21 21 21 20 20 20 20 20 20 20 20 20 20 19 19 19 19 19 19 19 18 18 19 19 18 18 18 18 18 18
29 28 27 26 26 25 24 24 23 22 21 21 21 21 21 21 20 20 20 20 20 20 20 20 20 20 19 19 19 19 19 18 18 18 18 18 18 18 18 18 18 18 17
29 28 27 26 25 25 24 24 23 22 22 21 21 21 21 20 20 20 20 20 20 20 20 20 20 19 19 19 19 19 19 18 18 18 18 18 18 17 17 17 17 17 17
27 27 27 26 25 24 24 24 23 22 22 22 21 21 21 21 20 20 20 20 20 20 20 20 20 19 19 19 19 19 19 18 18 18 18 18 17 17 17 17 17 17 17
27 26 26 25 25 24 23 23 23 22 22 22 21 21 21 21 20 20 20 20 20 20 20 20 20 19 19 19 19 19 18 18 18 18 17 17 17 17 17 17 16 16 16
26 25 25 24 24 23 23 22 22 22 22 21 21 21 20 20 20 20 20 20 20 20 19 19 19 19 19 19 19 19 18 18 18 17 17 17 17 17 17 16 16 16 16
25 24 24 23 23 23 23 22 22 22 21 21 21 21 20 20 20 20 20 20 20 20 19 19 19 19 19 19 19 18 18 18 17 17 17 16 16 16 16 16 16 16 16
24 23 23 23 23 23 22 22 22 21 21 21 21 20 20 20 20 20 19 19 19 19 19 19 19 19 19 18 18 18 18 17 17 17 16 16 16 16 16 16 16 16 15
23 23 23 23 22 22 22 21 21 21 20 20 20 20 20 20 20 19 19 19 19 19 19 18 18 18 18 18 18 17 17 17 17 16 16 16 16 16 16 16 15 15 15
23 23 22 22 22 21 21 21 21 21 20 20 20 20 20 20 19 19 19 19 18 18 18 18 18 18 18 18 17 17 17 16 16 16 16 16 16 16 15 15 15 15 15
22 22 21 21 21 21 21 20 20 20 20 20 19 19 19 19 19 19 19 18 18 18 17 17 17 17 17 17 17 17 16 16 16 16 15 16 16 15 15 15 15 15 15
21 21 21 20 20 20 20 20 20 19 19 19 19 18 18 18 18 18 18 18 17 17 17 17 17 17 16 16 16 16 16 16 15 15 15 15 15 15 15 15 15 15 14
20 20 20 20 19 19 19 19 19 19 18 18 18 18 18 18 18 17 17 17 17 17 17 17 16 16 16 16 16 16 16 15 15 15 15 15 15 15 14 14 14 14 14
20 20 19 19 19 18 18 18 18 18 18 18 17 17 17 17 17 17 17 17 16 16 16 16 16 15 15 15 15 15 15 15 15 14 14 14 14 14 14 14 14 14 13
19 19 18 18 18 18 18 18 18 17 17 17 17 17 17 16 16 16 16 16 16 16 16 16 15 15 15 15 15 15 15 14 14 14 14 14 14 14 13 13 13 13 13
18 18 18 17 17 17 17 17 17 17 17 16 16 16 16 16 16 16 16 16 16 16 15 15 15 15 15 15 14 14 14 14 14 14 13 13 13 13 13 13 13 13 13
Wind_Speed
13 12 12 13 12 11 9 8 7 6 4 4 3 3 3 3 3 3 4 4 3 3 2 1 2 2 2 2 2 2 2 2 2 1 1 1 3 4 3 3 2 3 5
14 13 12 13 13 12 10 9 8 7 5 4 3 3 3 3 3 3 4 4 4 4 4 3 3 3 3 2 2 2 1 2 2 1 1 1 0 1 3 4 4 3 3
16 15 14 13 14 13 12 11 9 8 7 5 4 3 3 2 2 4 4 3 4 4 2 3 2 2 3 3 3 2 2 2 2 2 1 1 0 1 1 3 3 4 3
16 16 15 14 13 14 13 10 10 9 8 6 5 4 4 3 3 3 3 4 4 4 4 3 2 2 2 2 3 3 2 2 2 2 1 1 1 1 1 1 2 4 4
16 17 16 14 14 14 14 12 10 9 8 7 6 4 3 3 2 3 4 4 4 4 4 4 3 2 1 2 1 1 2 2 2 1 1 1 1 2 2 2 2 2 3
16 17 16 15 14 14 14 14 12 10 9 8 6 5 4 3 2 2 3 4 3 4 4 4 3 2 2 2 2 2 3 2 2 2 2 1 1 2 2 2 2 2 2
15 16 16 16 14 14 14 14 13 11 10 9 7 6 5 5 4 3 4 4 3 3 4 4 3 2 2 2 2 3 3 3 2 3 3 2 2 2 2 2 2 2 2
14 16 16 16 14 14 14 14 14 12 11 10 8 6 6 5 4 4 3 3 2 2 4 4 3 3 3 3 2 2 3 2 2 4 3 3 3 2 2 2 2 2 2
12 15 16 17 16 15 13 13 14 12 11 10 8 7 7 5 4 4 4 2 2 3 3 4 4 3 3 3 2 2 3 2 2 3 3 3 3 3 2 2 2 2 2
11 13 14 15 15 14 13 13 13 12 10 10 9 8 7 6 4 4 3 3 2 1 2 3 3 3 3 3 3 3 3 2 2 2 2 2 2 2 2 2 2 2 2
11 10 10 12 13 13 14 13 12 12 10 9 8 6 7 6 6 4 3 3 2 2 3 3 3 3 3 3 3 3 2 2 2 3 2 2 3 3 3 2 2 2 2
10 11 11 11 11 12 12 12 12 12 11 9 8 7 7 6 6 5 4 4 4 3 3 3 3 3 3 2 2 3 2 3 3 3 3 3 3 2 3 3 3 2 2
8 9 10 10 9 9 9 10 10 11 11 10 9 8 7 7 6 5 5 5 5 4 4 3 3 3 2 2 3 3 3 3 2 2 3 3 3 3 2 3 3 3 3
7 7 8 9 8 8 7 7 8 8 9 9 9 8 8 7 6 5 5 5 5 5 4 4 4 4 3 3 2 3 3 3 3 3 2 2 1 2 3 3 2 2 2
6 6 6 7 8 8 7 7 6 6 6 7 7 7 7 7 6 6 5 5 5 6 4 4 4 4 4 3 3 3 4 4 3 2 2 2 2 1 1 2 2 2 2
5 5 5 7 7 7 7 6 6 6 6 6 7 6 6 6 6 6 5 5 4 4 4 4 4 4 4 2 3 3 3 3 3 3 2 3 2 3 3 3 2 2 2
4 4 3 4 6 7 6 7 6 5 5 5 5 5 5 5 5 6 5 5 5 5 4 4 4 3 3 3 2 3 3 2 2 2 2 3 1 1 2 4 5 4 4
4 4 3 4 5 7 7 7 6 5 5 5 5 5 5 4 4 4 4 4 4 4 3 4 3 2 2 3 3 3 4 3 2 2 2 1 1 3 2 3 3 3 4
4 3 3 3 4 4 6 6 5 5 4 5 4 4 5 5 4 4 4 3 3 3 4 3 3 2 2 2 2 2 3 3 3 2 2 2 2 3 3 3 4 4 4
4 3 3 2 3 3 4 5 4 4 4 4 4 4 4 4 4 4 3 3 3 3 3 3 3 3 2 3 3 3 3 3 2 1 1 1 1 2 2 3 4 5 5
4 4 3 2 2 2 3 3 2 3 3 3 3 4 4 4 4 4 3 3 3 3 3 3 3 3 3 3 2 2 2 2 2 2 1 1 1 1 2 3 4 6 6
3 3 3 3 3 3 3 2 1 1 2 2 2 3 3 4 4 3 3 3 3 4 3 3 3 2 1 1 2 3 3 3 2 2 1 0 1 2 4 4 6 7 5
2 2 2 2 3 3 2 2 1 1 1 2 3 3 3 3 3 4 4 3 3 4 3 3 3 2 2 1 2 3 2 3 2 1 1 1 3 4 4 6 6 4 3
1 1 2 1 2 2 2 2 2 1 1 2 2 2 3 3 3 2 3 3 3 3 2 2 2 2 2 1 1 1 1 1 2 2 1 2 4 4 4 3 3 3 3
1 1 1 1 1 2 2 1 1 1 1 1 2 3 3 3 3 2 0 1 0 1 2 2 2 2 3 3 3 2 2 2 2 2 2 2 2 2 3 3 2 2 2
0 0 1 1 1 1 1 1 1 2 1 1 2 3 3 3 3 3 2 5 3 2 2 2 2 1 3 4 3 2 2 2 2 1 2 3 3 3 3 2 2 1 1
Wind_Direction
166 161 161 156 149 145 143 144 147 143 148 156 166 172 163 162 159 156 151 155 167 161 178 157 156 174 163 162 158 174 188 195 192 199 203 234 215 190 176 181 178 175 166
165 162 165 162 158 152 151 152 157 155 161 162 169 171 169 167 164 151 141 161 170 179 187 168 195 190 158 169 180 168 227 226 169 192 177 213 250 254 187 169 181 179 161
169 167 171 170 164 160 163 166 161 161 168 170 167 176 163 179 152 148 157 174 180 186 186 182 209 181 177 176 187 185 214 236 230 219 209 234 187 256 209 187 171 165 175
169 172 175 175 169 165 166 160 158 161 166 176 175 182 173 179 171 163 162 170 179 190 186 188 195 205 195 167 195 173 232 230 246 223 223 217 131 212 256 257 183 184 191
171 173 176 173 172 168 167 163 159 162 166 178 182 188 189 188 179 166 165 173 187 194 199 185 186 200 210 179 216 164 231 250 272 272 233 223 199 221 228 239 228 229 197
171 170 172 170 172 169 167 166 161 165 170 179 182 185 192 199 201 198 181 189 191 196 195 181 183 189 203 197 216 216 225 236 266 289 294 265 227 229 245 255 241 237 223
171 168 168 169 171 171 170 166 162 168 174 180 186 182 190 204 204 216 213 206 201 193 185 185 178 188 197 206 211 211 239 239 246 256 272 283 261 238 250 268 274 267 250
171 168 167 167 172 173 169 164 165 171 177 182 186 184 186 202 202 209 226 214 210 183 170 171 178 192 205 212 197 230 228 228 241 255 261 282 282 269 239 237 252 269 259
172 168 167 169 173 174 170 167 165 171 178 181 180 186 189 201 205 195 213 221 207 192 166 172 182 192 194 215 213 219 246 230 233 262 257 257 279 282 282 263 236 232 262
169 168 167 169 171 172 168 165 164 170 175 180 184 188 188 193 199 206 202 203 207 198 171 176 185 195 201 210 220 220 224 227 237 249 273 273 278 293 288 281 264 242 248
161 158 161 164 165 167 169 168 165 167 174 179 179 178 177 186 197 202 197 200 205 194 195 200 201 202 210 213 218 226 228 218 236 258 261 265 280 298 301 289 273 251 234
157 156 155 153 159 165 168 168 169 171 176 177 175 179 179 186 195 194 196 199 202 201 201 203 206 217 211 210 214 238 244 233 231 247 259 268 273 276 290 302 292 276 251
143 144 147 150 156 160 161 165 171 174 177 176 178 181 185 191 197 199 200 196 194 198 195 197 209 227 222 215 218 228 244 251 248 248 252 265 280 284 289 285 285 291 289
131 137 141 147 151 152 152 163 172 171 175 175 180 183 188 192 197 203 200 192 189 192 194 197 206 215 215 221 234 243 239 247 250 249 248 251 257 283 285 285 295 290 293
131 128 137 138 143 148 154 163 166 169 176 177 184 186 187 189 192 197 194 188 193 199 192 197 207 208 217 227 225 239 238 232 235 237 232 222 180 140 278 286 305 292 272
120 127 133 134 143 148 156 159 165 171 175 180 185 181 181 191 194 191 187 184 189 196 195 202 205 216 229 223 211 230 255 236 226 230 229 218 195 194 211 231 257 270 264
113 106 109 133 147 151 153 160 166 171 172 173 174 173 180 188 193 195 185 187 192 196 202 206 201 196 199 218 237 242 242 237 237 250 261 264 253 217 238 239 238 243 243
111 119 140 147 152 158 164 163 169 169 169 170 176 175 179 183 181 184 186 193 193 194 201 206 197 185 210 215 229 257 223 225 224 240 249 248 288 306 293 278 267 252 242
116 125 135 146 152 164 161 152 157 166 172 177 182 178 177 182 185 182 186 193 192 199 201 190 186 193 217 228 227 247 238 222 230 235 254 231 244 288 277 266 267 263 262
92 105 110 106 127 147 152 153 163 172 183 186 186 179 176 181 186 184 184 186 195 205 203 195 184 185 209 227 224 241 251 241 231 200 211 227 238 295 271 254 263 266 273
80 83 89 80 81 109 129 149 163 183 187 182 174 173 178 187 187 180 181 186 196 198 195 196 197 195 206 203 199 194 246 271 262 247 228 239 164 237 255 249 254 260 270
81 93 90 86 79 86 106 124 121 121 154 157 167 174 177 202 191 172 185 190 194 195 195 198 195 193 171 165 179 181 210 258 266 266 263 222 215 242 255 254 265 273 276
61 92 106 99 95 100 120 129 102 94 131 162 172 184 185 183 176 179 187 191 196 202 202 203 203 195 176 191 185 177 215 257 252 270 268 281 252 251 253 251 262 272 266
41 85 120 122 112 110 113 115 109 101 134 157 174 177 168 169 158 171 193 199 206 212 206 206 214 202 191 214 215 223 242 258 263 284 282 249 249 256 261 263 256 247 256
17 59 94 113 120 123 126 122 115 116 152 174 194 201 195 180 162 151 53 187 229 212 198 216 223 214 217 223 207 223 240 245 244 260 256 255 252 252 249 242 243 243 247
206 173 186 196 193 158 131 109 113 129 156 208 211 219 212 190 175 150 97 47 55 70 116 156 173 175 183 188 179 199 241 236 180 201 253 260 266 271 275 276 267 260 273
Height
1498 1501 1504 1507 1509 1511 1513 1515 1517 1518 1520 1521 1523 1525 1526 1527 1529 1530 1531 1531 1532 1534 1535 1536 1537 1538 1539 1539 1540 1540 1541 1542 1543 1544 1544 1544 1544 1545 1545 1545 1546 1546 1546
1495 1499 1502 1505 1508 1510 1512 1514 1516 1518 1519 1521 1523 1524 1526 1527 1528 1530 1530 1531 1532 1533 1535 1536 1537 1538 1538 1539 1540 1540 1541 1542 1543 1543 1543 1544 1545 1544 1544 1544 1544 1545 1545
1491 1496 1500 1503 1506 1508 1510 1512 1514 1516 1519 1520 1522 1524 1526 1527 1528 1529 1530 1531 1532 1533 1534 1535 1536 1537 1538 1538 1539 1540 1541 1541 1542 1543 1543 1543 1543 1543 1544 1543 1543 1543 1543
1487 1492 1496 1500 1503 1506 1508 1511 1513 1515 1517 1519 1521 1523 1525 1526 1528 1528 1529 1530 1531 1532 1533 1534 1535 1536 1537 1538 1539 1539 1540 1540 1541 1541 1542 1542 1542 1542 1542 1543 1543 1542 1541
1482 1488 1492 1497 1501 1504 1507 1509 1511 1514 1516 1518 1520 1522 1524 1525 1527 1528 1529 1530 1531 1532 1533 1534 1534 1535 1536 1537 1538 1538 1539 1539 1540 1540 1540 1541 1541 1541 1541 1541 1541 1541 1540
1478 1484 1489 1494 1498 1502 1505 1507 1509 1512 1515 1517 1519 1521 1522 1524 1526 1527 1528 1529 1530 1531 1532 1532 1533 1534 1535 1536 1537 1537 1538 1538 1538 1539 1539 1539 1539 1539 1539 1539 1538 1538 1538
1475 1480 1486 1491 1495 1499 1502 1505 1507 1510 1513 1515 1517 1519 1521 1522 1524 1525 1526 1528 1529 1529 1530 1531 1532 1533 1534 1535 1535 1536 1536 1537 1537 1537 1537 1537 1538 1538 1537 1537 1537 1536 1536
1472 1477 1482 1487 1492 1496 1500 1503 1505 1507 1510 1513 1515 1517 1519 1521 1522 1523 1525 1526 1527 1528 1529 1530 1531 1532 1532 1533 1534 1535 1535 1535 1535 1535 1535 1535 1535 1536 1535 1535 1535 1534 1534
1469 1474 1479 1484 1489 1493 1497 1500 1502 1505 1508 1511 1513 1515 1517 1519 1521 1522 1523 1524 1526 1527 1528 1528 1529 1530 1531 1532 1532 1533 1533 1533 1533 1533 1533 1533 1533 1533 1533 1533 1533 1533 1531
1467 1471 1476 1481 1486 1490 1494 1498 1500 1503 1506 1509 1511 1513 1515 1517 1518 1520 1521 1522 1524 1525 1526 1527 1528 1528 1529 1530 1530 1531 1531 1531 1531 1531 1531 1531 1531 1531 1531 1530 1530 1530 1530
1465 1470 1474 1479 1483 1488 1492 1495 1498 1501 1504 1506 1509 1511 1513 1515 1516 1518 1519 1520 1521 1523 1524 1525 1526 1526 1527 1528 1528 1529 1529 1529 1529 1529 1529 1529 1528 1528 1528 1528 1527 1527 1527
1463 1467 1472 1476 1481 1485 1489 1493 1496 1498 1501 1504 1507 1509 1511 1513 1514 1515 1516 1518 1519 1520 1522 1523 1524 1525 1525 1525 1526 1526 1527 1527 1527 1526 1526 1526 1526 1525 1525 1525 1524 1524 1524
1462 1466 1470 1475 1479 1483 1487 1490 1494 1497 1499 1502 1504 1507 1508 1510 1511 1513 1514 1515 1516 1518 1520 1521 1521 1522 1523 1523 1523 1524 1524 1524 1524 1524 1523 1523 1523 1522 1522 1522 1521 1521 1521
1463 1466 1470 1474 1478 1481 1485 1488 1492 1495 1498 1500 1502 1504 1506 1508 1509 1510 1511 1512 1514 1515 1516 1517 1518 1519 1520 1520 1520 1521 1521 1521 1521 1520 1520 1519 1519 1519 1519 1519 1518 1518 1517
1463 1466 1470 1473 1477 1480 1484 1487 1490 1493 1496 1498 1500 1502 1504 1505 1507 1508 1509 1510 1511 1512 1513 1514 1515 1516 1516 1517 1517 1517 1518 1517 1517 1517 1517 1516 1516 1515 1516 1516 1515 1515 1514
1464 1467 1470 1472 1475 1479 1482 1486 1488 1491 1494 1496 1498 1500 1501 1503 1504 1505 1506 1507 1509 1510 1511 1511 1512 1512 1513 1513 1514 1514 1514 1514 1514 1513 1513 1513 1513 1512 1512 1512 1512 1512 1512
1465 1467 1469 1472 1475 1477 1480 1483 1486 1489 1491 1493 1495 1497 1499 1500 1501 1502 1503 1504 1505 1506 1507 1508 1508 1509 1509 1510 1510 1510 1510 1510 1511 1511 1511 1510 1510 1509 1509 1509 1509 1509 1509
1466 1468 1470 1472 1474 1476 1479 1481 1484 1486 1489 1491 1492 1494 1495 1497 1498 1499 1500 1501 1502 1502 1503 1504 1505 1505 1506 1506 1507 1507 1507 1507 1507 1507 1507 1507 1506 1506 1506 1505 1505 1505 1505
1466 1467 1469 1471 1473 1475 1477 1478 1481 1484 1486 1488 1490 1491 1492 1493 1494 1495 1496 1497 1498 1499 1500 1501 1502 1502 1502 1503 1503 1504 1504 1503 1503 1504 1504 1504 1504 1503 1502 1502 1501 1501 1501
1465 1467 1469 1471 1472 1474 1475 1476 1479 1481 1483 1485 1486 1488 1489 1490 1491 1492 1493 1494 1495 1496 1497 1498 1498 1499 1499 1500 1500 1501 1501 1500 1500 1500 1500 1501 1500 1500 1499 1499 1498 1497 1497
1465 1467 1469 1470 1471 1471 1473 1475 1477 1479 1481 1483 1484 1485 1486 1487 1488 1489 1490 1491 1492 1493 1493 1495 1496 1496 1496 1497 1497 1498 1497 1497 1497 1497 1497 1497 1497 1496 1496 1495 1494 1494 1493
1465 1466 1467 1469 1470 1470 1471 1473 1474 1477 1478 1480 1481 1482 1483 1484 1485 1486 1487 1488 1489 1490 1491 1492 1492 1493 1493 1493 1494 1494 1494 1494 1494 1493 1494 1493 1493 1493 1492 1491 1490 1490 1489
1464 1465 1466 1468 1469 1469 1470 1471 1472 1474 1475 1476 1477 1479 1480 1481 1482 1483 1484 1485 1486 1487 1488 1488 1489 1489 1490 1490 1490 1490 1490 1490 1490 1490 1490 1490 1489 1488 1488 1487 1487 1486 1485
1464 1464 1465 1466 1467 1468 1469 1469 1470 1471 1472 1473 1474 1475 1477 1478 1479 1480 1481 1482 1483 1484 1485 1485 1485 1486 1486 1486 1486 1486 1486 1486 1486 1486 1486 1485 1485 1485 1484 1484 1483 1482 1482
1462 1463 1464 1464 1465 1466 1467 1468 1468 1469 1470 1470 1471 1473 1474 1474 1475 1477 1478 1479 1480 1481 1481 1481 1482 1482 1482 1482 1483 1483 1483 1483 1483 1482 1482 1481 1481 1481 1480 1480 1479 1479 1478
1460 1461 1462 1463 1463 1464 1465 1465 1466 1466 1467 1468 1469 1470 1471 1472 1472 1473 1475 1476 1477 1478 1478 1478 1479 1479 1479 1479 1479 1480 1480 1480 1480 1479 1478 1478 1478 1478 1477 1476 1475 1475 1474